Time,TemperatureF,DewpointF,PressureIn,WindDirection,WindDirectionDegrees,WindSpeedMPH,WindSpeedGustMPH,Humidity,HourlyPrecipIn,Conditions,Clouds,dailyrainin,SoftwareType,DateUTC
2013-01-20 00:01:00,46.7,23.6,30.14,WSW,244,0.0,0.0,40,0.00,,,0.00,Wunderground v.1.15,2013-01-20 07:01:00,
2013-01-20 00:07:00,45.6,23.2,30.14,WSW,244,0.0,1.0,41,0.00,,,0.00,Wunderground v.1.15,2013-01-20 07:07:00,
2013-01-20 00:12:00,45.5,23.1,30.14,WSW,244,0.0,2.0,41,0.00,,,0.00,Wunderground v.1.15,2013-01-20 07:12:00,
2013-01-20 00:17:00,45.2,22.9,30.14,WSW,244,0.0,2.0,41,0.00,,,0.00,Wunderground v.1.15,2013-01-20 07:17:00,
2013-01-20 00:23:00,44.7,23.0,30.14,WSW,244,1.0,1.0,42,0.00,,,0.00,Wunderground v.1.15,2013-01-20 07:23:00,
2013-01-20 00:29:00,44.2,23.1,30.14,WSW,244,1.0,1.0,43,0.00,,,0.00,Wunderground v.1.15,2013-01-20 07:29:00,
2013-01-20 00:34:00,43.8,22.7,30.14,WSW,244,3.0,3.0,43,0.00,,,0.00,Wunderground v.1.15,2013-01-20 07:34:00,
2013-01-20 00:40:00,44.7,23.5,30.14,WSW,244,2.0,2.0,43,0.00,,,0.00,Wunderground v.1.15,2013-01-20 07:40:00,
2013-01-20 00:46:00,45.3,23.5,30.14,WSW,244,0.0,2.0,42,0.00,,,0.00,Wunderground v.1.15,2013-01-20 07:46:00,
2013-01-20 00:52:00,44.5,23.4,30.14,WSW,244,0.0,1.0,43,0.00,,,0.00,Wunderground v.1.15,2013-01-20 07:52:00,
2013-01-20 00:57:00,43.8,23.3,30.14,WSW,244,0.0,1.0,44,0.00,,,0.00,Wunderground v.1.15,2013-01-20 07:57:00,
2013-01-20 01:03:00,43.2,23.3,30.14,WSW,244,0.0,0.0,45,0.00,,,0.00,Wunderground v.1.15,2013-01-20 08:03:00,
2013-01-20 01:09:00,42.9,23.0,30.14,WSW,244,0.0,0.0,45,0.00,,,0.00,Wunderground v.1.15,2013-01-20 08:09:00,
2013-01-20 01:14:00,42.6,23.2,30.14,WSW,244,0.0,0.0,46,0.00,,,0.00,Wunderground v.1.15,2013-01-20 08:14:00,
2013-01-20 01:20:00,42.4,23.6,30.14,WSW,244,0.0,0.0,47,0.00,,,0.00,Wunderground v.1.15,2013-01-20 08:20:00,
2013-01-20 01:25:00,42.1,23.3,30.14,WSW,244,0.0,0.0,47,0.00,,,0.00,Wunderground v.1.15,2013-01-20 08:25:00,
2013-01-20 01:31:00,41.9,23.6,30.14,WSW,244,1.0,1.0,48,0.00,,,0.00,Wunderground v.1.15,2013-01-20 08:31:00,
2013-01-20 01:36:00,41.6,23.3,30.14,WSW,244,0.0,1.0,48,0.00,,,0.00,Wunderground v.1.15,2013-01-20 08:36:00,
2013-01-20 01:42:00,41.4,23.6,30.14,WSW,244,0.0,1.0,49,0.00,,,0.00,Wunderground v.1.15,2013-01-20 08:42:00,
2013-01-20 01:47:00,41.4,23.6,30.14,WSW,244,0.0,1.0,49,0.00,,,0.00,Wunderground v.1.15,2013-01-20 08:47:00,
2013-01-20 01:52:00,40.7,23.5,30.14,WSW,244,0.0,0.0,50,0.00,,,0.00,Wunderground v.1.15,2013-01-20 08:52:00,
2013-01-20 01:58:00,40.6,23.9,30.14,WSW,244,0.0,0.0,51,0.00,,,0.00,Wunderground v.1.15,2013-01-20 08:58:00,
2013-01-20 02:03:00,41.2,23.9,30.14,WSW,244,0.0,0.0,50,0.00,,,0.00,Wunderground v.1.15,2013-01-20 09:03:00,
2013-01-20 02:08:00,41.3,23.6,30.14,WSW,244,0.0,0.0,49,0.00,,,0.00,Wunderground v.1.15,2013-01-20 09:08:00,
2013-01-20 02:13:00,40.6,23.4,30.14,WSW,244,0.0,1.0,50,0.00,,,0.00,Wunderground v.1.15,2013-01-20 09:13:00,
2013-01-20 02:18:00,40.4,23.7,30.14,WSW,244,0.0,1.0,51,0.00,,,0.00,Wunderground v.1.15,2013-01-20 09:18:00,
2013-01-20 02:23:00,40.6,23.9,30.14,WSW,244,0.0,0.0,51,0.00,,,0.00,Wunderground v.1.15,2013-01-20 09:23:00,
2013-01-20 02:28:00,40.4,23.7,30.14,WSW,244,0.0,1.0,51,0.00,,,0.00,Wunderground v.1.15,2013-01-20 09:28:00,
2013-01-20 02:33:00,40.3,24.1,30.14,WSW,244,0.0,0.0,52,0.00,,,0.00,Wunderground v.1.15,2013-01-20 09:33:00,
2013-01-20 02:38:00,39.7,24.0,30.15,WSW,244,0.0,0.0,53,0.00,,,0.00,Wunderground v.1.15,2013-01-20 09:38:00,
2013-01-20 02:44:00,40.7,24.4,30.14,WSW,244,0.0,0.0,52,0.00,,,0.00,Wunderground v.1.15,2013-01-20 09:44:00,
2013-01-20 02:49:00,43.0,24.1,30.14,WSW,244,0.0,0.0,47,0.00,,,0.00,Wunderground v.1.15,2013-01-20 09:49:00,
2013-01-20 02:54:00,42.7,23.8,30.14,WSW,244,0.0,1.0,47,0.00,,,0.00,Wunderground v.1.15,2013-01-20 09:54:00,
2013-01-20 02:59:00,44.3,24.3,30.14,WSW,244,0.0,0.0,45,0.00,,,0.00,Wunderground v.1.15,2013-01-20 09:59:00,
2013-01-20 03:04:00,44.2,23.6,30.14,WSW,244,1.0,2.0,44,0.00,,,0.00,Wunderground v.1.15,2013-01-20 10:04:00,
2013-01-20 03:10:00,44.6,24.0,30.14,WSW,244,0.0,0.0,44,0.00,,,0.00,Wunderground v.1.15,2013-01-20 10:10:00,
2013-01-20 03:15:00,42.5,23.2,30.14,WSW,244,0.0,0.0,46,0.00,,,0.00,Wunderground v.1.15,2013-01-20 10:15:00,
2013-01-20 03:20:00,41.0,23.3,30.14,WSW,244,0.0,0.0,49,0.00,,,0.00,Wunderground v.1.15,2013-01-20 10:20:00,
2013-01-20 03:25:00,40.6,23.9,30.14,WSW,244,0.0,0.0,51,0.00,,,0.00,Wunderground v.1.15,2013-01-20 10:25:00,
2013-01-20 03:30:00,40.3,23.6,30.14,WSW,244,0.0,0.0,51,0.00,,,0.00,Wunderground v.1.15,2013-01-20 10:30:00,
2013-01-20 03:35:00,40.2,23.5,30.14,WSW,244,0.0,0.0,51,0.00,,,0.00,Wunderground v.1.15,2013-01-20 10:35:00,
2013-01-20 03:40:00,40.1,23.9,30.14,SW,235,0.0,0.0,52,0.00,,,0.00,Wunderground v.1.15,2013-01-20 10:40:00,
2013-01-20 03:45:00,40.0,23.8,30.14,SW,236,0.0,0.0,52,0.00,,,0.00,Wunderground v.1.15,2013-01-20 10:45:00,
2013-01-20 03:50:00,40.3,23.6,30.13,SW,236,0.0,0.0,51,0.00,,,0.00,Wunderground v.1.15,2013-01-20 10:50:00,
2013-01-20 03:55:00,40.4,23.7,30.13,SW,236,0.0,0.0,51,0.00,,,0.00,Wunderground v.1.15,2013-01-20 10:55:00,
2013-01-20 04:00:00,40.6,23.4,30.13,SW,236,0.0,0.0,50,0.00,,,0.00,Wunderground v.1.15,2013-01-20 11:00:00,
2013-01-20 04:05:00,39.1,23.4,30.13,SW,236,0.0,0.0,53,0.00,,,0.00,Wunderground v.1.15,2013-01-20 11:05:00,
2013-01-20 04:10:00,38.6,23.4,30.13,SW,236,0.0,0.0,54,0.00,,,0.00,Wunderground v.1.15,2013-01-20 11:10:00,
2013-01-20 04:15:00,38.4,23.2,30.12,SW,236,0.0,1.0,54,0.00,,,0.00,Wunderground v.1.15,2013-01-20 11:15:00,
2013-01-20 04:21:00,38.5,23.3,30.13,SW,236,0.0,1.0,54,0.00,,,0.00,Wunderground v.1.15,2013-01-20 11:21:00,
2013-01-20 04:26:00,37.8,23.1,30.12,SW,236,0.0,1.0,55,0.00,,,0.00,Wunderground v.1.15,2013-01-20 11:26:00,
2013-01-20 04:31:00,37.6,23.3,30.12,SW,236,1.0,1.0,56,0.00,,,0.00,Wunderground v.1.15,2013-01-20 11:31:00,
2013-01-20 04:36:00,37.7,23.4,30.12,SW,236,1.0,2.0,56,0.00,,,0.00,Wunderground v.1.15,2013-01-20 11:36:00,
2013-01-20 04:41:00,38.0,23.3,30.12,SW,236,1.0,2.0,55,0.00,,,0.00,Wunderground v.1.15,2013-01-20 11:41:00,
2013-01-20 04:46:00,37.8,23.1,30.12,SW,236,1.0,2.0,55,0.00,,,0.00,Wunderground v.1.15,2013-01-20 11:46:00,
2013-01-20 04:51:00,37.8,23.5,30.13,SW,236,0.0,1.0,56,0.00,,,0.00,Wunderground v.1.15,2013-01-20 11:51:00,
2013-01-20 04:56:00,37.6,23.3,30.13,SW,236,0.0,1.0,56,0.00,,,0.00,Wunderground v.1.15,2013-01-20 11:56:00,
2013-01-20 05:01:00,37.9,23.6,30.13,SW,236,0.0,0.0,56,0.00,,,0.00,Wunderground v.1.15,2013-01-20 12:01:00,
2013-01-20 05:06:00,38.1,23.8,30.13,SW,236,0.0,0.0,56,0.00,,,0.00,Wunderground v.1.15,2013-01-20 12:06:00,
2013-01-20 05:11:00,38.7,23.9,30.13,SW,236,0.0,0.0,55,0.00,,,0.00,Wunderground v.1.15,2013-01-20 12:11:00,
2013-01-20 05:16:00,38.7,23.9,30.13,SW,236,0.0,0.0,55,0.00,,,0.00,Wunderground v.1.15,2013-01-20 12:16:00,
2013-01-20 05:21:00,38.4,23.6,30.13,SW,236,0.0,0.0,55,0.00,,,0.00,Wunderground v.1.15,2013-01-20 12:21:00,
2013-01-20 05:27:00,39.1,24.3,30.13,SW,236,0.0,0.0,55,0.00,,,0.00,Wunderground v.1.15,2013-01-20 12:27:00,
2013-01-20 05:32:00,41.3,24.0,30.13,SW,236,0.0,0.0,50,0.00,,,0.00,Wunderground v.1.15,2013-01-20 12:32:00,
2013-01-20 05:37:00,42.7,24.4,30.13,SW,236,0.0,0.0,48,0.00,,,0.00,Wunderground v.1.15,2013-01-20 12:37:00,
2013-01-20 05:42:00,43.3,24.4,30.13,SW,234,0.0,1.0,47,0.00,,,0.00,Wunderground v.1.15,2013-01-20 12:42:00,
2013-01-20 05:47:00,43.4,24.0,30.12,SW,234,0.0,1.0,46,0.00,,,0.00,Wunderground v.1.15,2013-01-20 12:47:00,
2013-01-20 05:53:00,43.3,23.9,30.12,SW,234,0.0,0.0,46,0.00,,,0.00,Wunderground v.1.15,2013-01-20 12:53:00,
2013-01-20 05:58:00,41.6,23.8,30.12,SW,234,1.0,1.0,49,0.00,,,0.00,Wunderground v.1.15,2013-01-20 12:58:00,
2013-01-20 06:03:00,42.7,24.4,30.12,SW,234,0.0,1.0,48,0.00,,,0.00,Wunderground v.1.15,2013-01-20 13:03:00,
2013-01-20 06:08:00,42.8,23.9,30.12,SW,234,1.0,1.0,47,0.00,,,0.00,Wunderground v.1.15,2013-01-20 13:08:00,
2013-01-20 06:13:00,42.8,23.9,30.12,SW,234,0.0,1.0,47,0.00,,,0.00,Wunderground v.1.15,2013-01-20 13:13:00,
2013-01-20 06:18:00,42.4,24.1,30.12,SW,234,0.0,1.0,48,0.00,,,0.00,Wunderground v.1.15,2013-01-20 13:18:00,
2013-01-20 06:24:00,42.5,23.7,30.12,SW,234,0.0,1.0,47,0.00,,,0.00,Wunderground v.1.15,2013-01-20 13:24:00,
2013-01-20 06:29:00,40.2,23.5,30.12,SW,234,0.0,0.0,51,0.00,,,0.00,Wunderground v.1.15,2013-01-20 13:29:00,
2013-01-20 06:34:00,39.1,23.4,30.12,SW,234,0.0,0.0,53,0.00,,,0.00,Wunderground v.1.15,2013-01-20 13:34:00,
2013-01-20 06:39:00,38.7,23.5,30.12,SW,234,0.0,0.0,54,0.00,,,0.00,Wunderground v.1.15,2013-01-20 13:39:00,
2013-01-20 06:44:00,41.9,24.6,30.12,SW,234,0.0,1.0,50,0.00,,,0.00,Wunderground v.1.15,2013-01-20 13:44:00,
2013-01-20 06:50:00,41.8,24.0,30.13,SW,234,0.0,0.0,49,0.00,,,0.00,Wunderground v.1.15,2013-01-20 13:50:00,
2013-01-20 06:55:00,39.8,23.6,30.13,SW,234,0.0,0.0,52,0.00,,,0.00,Wunderground v.1.15,2013-01-20 13:55:00,
2013-01-20 07:00:00,39.7,24.0,30.13,SW,234,0.0,0.0,53,0.00,,,0.00,Wunderground v.1.15,2013-01-20 14:00:00,
2013-01-20 07:05:00,40.8,24.1,30.13,SW,234,0.0,0.0,51,0.00,,,0.00,Wunderground v.1.15,2013-01-20 14:05:00,
2013-01-20 07:10:00,42.5,24.2,30.13,SW,234,0.0,1.0,48,0.00,,,0.00,Wunderground v.1.15,2013-01-20 14:10:00,
2013-01-20 07:15:00,41.1,23.9,30.13,SW,234,0.0,1.0,50,0.00,,,0.00,Wunderground v.1.15,2013-01-20 14:15:00,
2013-01-20 07:20:00,39.1,23.8,30.13,SW,234,0.0,0.0,54,0.00,,,0.00,Wunderground v.1.15,2013-01-20 14:20:00,
2013-01-20 07:25:00,38.3,24.0,30.12,SW,234,0.0,0.0,56,0.00,,,0.00,Wunderground v.1.15,2013-01-20 14:25:00,
2013-01-20 07:30:00,38.5,24.1,30.13,SW,234,0.0,0.0,56,0.00,,,0.00,Wunderground v.1.15,2013-01-20 14:30:00,
2013-01-20 07:36:00,39.9,25.0,30.13,SW,234,0.0,0.0,55,0.00,,,0.00,Wunderground v.1.15,2013-01-20 14:36:00,
2013-01-20 07:41:00,41.1,24.8,30.13,SW,234,0.0,0.0,52,0.00,,,0.00,Wunderground v.1.15,2013-01-20 14:41:00,
2013-01-20 07:46:00,42.5,25.1,30.12,SW,234,0.0,0.0,50,0.00,,,0.00,Wunderground v.1.15,2013-01-20 14:46:00,
2013-01-20 07:51:00,43.6,25.7,30.12,SW,234,0.0,0.0,49,0.00,,,0.00,Wunderground v.1.15,2013-01-20 14:51:00,
2013-01-20 07:56:00,44.4,25.9,30.12,SW,234,0.0,0.0,48,0.00,,,0.00,Wunderground v.1.15,2013-01-20 14:56:00,
2013-01-20 08:01:00,45.2,25.6,30.12,SW,234,0.0,0.0,46,0.00,,,0.00,Wunderground v.1.15,2013-01-20 15:01:00,
2013-01-20 08:06:00,46.5,25.7,30.12,SW,234,0.0,1.0,44,0.00,,,0.00,Wunderground v.1.15,2013-01-20 15:06:00,
2013-01-20 08:12:00,47.4,26.0,30.12,SW,234,0.0,0.0,43,0.00,,,0.00,Wunderground v.1.15,2013-01-20 15:12:00,
2013-01-20 08:17:00,48.2,26.2,30.12,SW,234,0.0,1.0,42,0.00,,,0.00,Wunderground v.1.15,2013-01-20 15:17:00,
2013-01-20 08:22:00,49.1,26.4,30.13,SW,234,0.0,1.0,41,0.00,,,0.00,Wunderground v.1.15,2013-01-20 15:22:00,
2013-01-20 08:27:00,49.7,26.3,30.13,SSE,156,0.0,2.0,40,0.00,,,0.00,Wunderground v.1.15,2013-01-20 15:27:00,
2013-01-20 08:32:00,50.1,26.1,30.13,SSE,163,1.0,2.0,39,0.00,,,0.00,Wunderground v.1.15,2013-01-20 15:32:00,
2013-01-20 08:37:00,50.8,26.7,30.13,SSE,157,1.0,2.0,39,0.00,,,0.00,Wunderground v.1.15,2013-01-20 15:37:00,
2013-01-20 08:43:00,51.4,26.0,30.13,SSE,153,1.0,3.0,37,0.00,,,0.00,Wunderground v.1.15,2013-01-20 15:43:00,
2013-01-20 08:48:00,51.8,26.3,30.13,SE,142,0.0,3.0,37,0.00,,,0.00,Wunderground v.1.15,2013-01-20 15:48:00,
2013-01-20 08:53:00,52.5,26.3,30.13,SE,142,1.0,1.0,36,0.00,,,0.00,Wunderground v.1.15,2013-01-20 15:53:00,
2013-01-20 08:58:00,53.1,26.1,30.13,SE,142,1.0,2.0,35,0.00,,,0.00,Wunderground v.1.15,2013-01-20 15:58:00,
2013-01-20 09:03:00,53.6,26.6,30.13,SE,142,0.0,2.0,35,0.00,,,0.00,Wunderground v.1.15,2013-01-20 16:03:00,
2013-01-20 09:09:00,54.1,26.3,30.13,SE,142,0.0,0.0,34,0.00,,,0.00,Wunderground v.1.15,2013-01-20 16:09:00,
2013-01-20 09:14:00,54.5,26.7,30.13,ESE,119,0.0,2.0,34,0.00,,,0.00,Wunderground v.1.15,2013-01-20 16:14:00,
2013-01-20 09:19:00,54.7,26.8,30.13,ENE,74,0.0,1.0,34,0.00,,,0.00,Wunderground v.1.15,2013-01-20 16:19:00,
2013-01-20 09:24:00,54.6,26.0,30.13,East,79,1.0,3.0,33,0.00,,,0.00,Wunderground v.1.15,2013-01-20 16:24:00,
2013-01-20 09:29:00,55.4,26.7,30.14,East,79,0.0,1.0,33,0.00,,,0.00,Wunderground v.1.15,2013-01-20 16:29:00,
2013-01-20 09:34:00,55.9,26.4,30.14,ENE,76,1.0,4.0,32,0.00,,,0.00,Wunderground v.1.15,2013-01-20 16:34:00,
2013-01-20 09:39:00,56.2,25.9,30.14,SE,134,3.0,3.0,31,0.00,,,0.00,Wunderground v.1.15,2013-01-20 16:39:00,
2013-01-20 09:44:00,57.0,25.8,30.14,ESE,107,3.0,3.0,30,0.00,,,0.00,Wunderground v.1.15,2013-01-20 16:44:00,
2013-01-20 09:49:00,57.3,26.1,30.13,ESE,111,0.0,2.0,30,0.00,,,0.00,Wunderground v.1.15,2013-01-20 16:49:00,
2013-01-20 09:55:00,57.5,26.3,30.14,East,100,2.0,3.0,30,0.00,,,0.00,Wunderground v.1.15,2013-01-20 16:55:00,
2013-01-20 10:00:00,58.1,26.8,30.14,ESE,110,2.0,2.0,30,0.00,,,0.00,Wunderground v.1.15,2013-01-20 17:00:00,
2013-01-20 10:05:00,58.5,26.3,30.14,East,79,2.0,3.0,29,0.00,,,0.00,Wunderground v.1.15,2013-01-20 17:05:00,
2013-01-20 10:10:00,59.5,27.2,30.13,ESE,122,2.0,3.0,29,0.00,,,0.00,Wunderground v.1.15,2013-01-20 17:10:00,
2013-01-20 10:15:00,60.3,27.0,30.13,East,88,1.0,4.0,28,0.00,,,0.00,Wunderground v.1.15,2013-01-20 17:15:00,
2013-01-20 10:21:00,61.2,26.9,30.13,ESE,117,3.0,3.0,27,0.00,,,0.00,Wunderground v.1.15,2013-01-20 17:21:00,
2013-01-20 10:26:00,61.7,27.3,30.13,SSE,149,2.0,4.0,27,0.00,,,0.00,Wunderground v.1.15,2013-01-20 17:26:00,
2013-01-20 10:31:00,62.4,27.0,30.13,East,92,1.0,5.0,26,0.00,,,0.00,Wunderground v.1.15,2013-01-20 17:31:00,
2013-01-20 10:36:00,62.9,26.5,30.13,ESE,104,2.0,6.0,25,0.00,,,0.00,Wunderground v.1.15,2013-01-20 17:36:00,
2013-01-20 10:41:00,63.3,26.8,30.13,SE,132,2.0,3.0,25,0.00,,,0.00,Wunderground v.1.15,2013-01-20 17:41:00,
2013-01-20 10:46:00,64.1,27.5,30.13,ESE,106,3.0,3.0,25,0.00,,,0.00,Wunderground v.1.15,2013-01-20 17:46:00,
2013-01-20 10:51:00,64.5,27.9,30.12,ESE,117,1.0,3.0,25,0.00,,,0.00,Wunderground v.1.15,2013-01-20 17:51:00,
2013-01-20 10:57:00,65.4,27.6,30.12,SE,134,3.0,3.0,24,0.00,,,0.00,Wunderground v.1.15,2013-01-20 17:57:00,
2013-01-20 11:02:00,65.2,26.4,30.12,SE,134,4.0,5.0,23,0.00,,,0.00,Wunderground v.1.15,2013-01-20 18:02:00,
2013-01-20 11:07:00,65.7,26.9,30.12,ESE,104,1.0,5.0,23,0.00,,,0.00,Wunderground v.1.15,2013-01-20 18:07:00,
2013-01-20 11:12:00,66.3,27.4,30.12,ENE,75,0.0,2.0,23,0.00,,,0.00,Wunderground v.1.15,2013-01-20 18:12:00,
2013-01-20 11:17:00,66.6,26.5,30.11,ESE,115,0.0,4.0,22,0.00,,,0.00,Wunderground v.1.15,2013-01-20 18:17:00,
2013-01-20 11:22:00,67.0,26.9,30.11,East,80,2.0,3.0,22,0.00,,,0.00,Wunderground v.1.15,2013-01-20 18:22:00,
2013-01-20 11:27:00,67.9,26.5,30.11,ESE,123,2.0,4.0,21,0.00,,,0.00,Wunderground v.1.15,2013-01-20 18:27:00,
2013-01-20 11:32:00,68.4,25.7,30.11,East,101,2.0,4.0,20,0.00,,,0.00,Wunderground v.1.15,2013-01-20 18:32:00,
2013-01-20 11:38:00,68.6,25.9,30.10,ESE,102,4.0,5.0,20,0.00,,,0.00,Wunderground v.1.15,2013-01-20 18:38:00,
2013-01-20 11:43:00,68.7,26.0,30.10,East,92,1.0,5.0,20,0.00,,,0.00,Wunderground v.1.15,2013-01-20 18:43:00,
2013-01-20 11:48:00,69.0,26.2,30.09,SE,133,3.0,5.0,20,0.00,,,0.00,Wunderground v.1.15,2013-01-20 18:48:00,
2013-01-20 11:53:00,69.4,26.6,30.09,SE,140,3.0,3.0,20,0.00,,,0.00,Wunderground v.1.15,2013-01-20 18:53:00,
2013-01-20 11:58:00,69.3,26.5,30.09,SE,134,2.0,4.0,20,0.00,,,0.00,Wunderground v.1.15,2013-01-20 18:58:00,
2013-01-20 12:03:00,70.0,25.8,30.08,East,94,0.0,3.0,19,0.00,,,0.00,Wunderground v.1.15,2013-01-20 19:03:00,
2013-01-20 12:08:00,69.9,25.7,30.08,ESE,105,1.0,1.0,19,0.00,,,0.00,Wunderground v.1.15,2013-01-20 19:08:00,
2013-01-20 12:14:00,70.2,27.2,30.08,SE,124,1.0,2.0,20,0.00,,,0.00,Wunderground v.1.15,2013-01-20 19:14:00,
2013-01-20 12:19:00,70.4,26.1,30.07,ENE,69,3.0,3.0,19,0.00,,,0.00,Wunderground v.1.15,2013-01-20 19:19:00,
2013-01-20 12:24:00,71.2,26.8,30.07,ESE,110,0.0,3.0,19,0.00,,,0.00,Wunderground v.1.15,2013-01-20 19:24:00,
2013-01-20 12:29:00,71.5,27.0,30.06,ESE,110,3.0,5.0,19,0.00,,,0.00,Wunderground v.1.15,2013-01-20 19:29:00,
2013-01-20 12:35:00,71.7,27.2,30.06,SSE,155,0.0,5.0,19,0.00,,,0.00,Wunderground v.1.15,2013-01-20 19:35:00,
2013-01-20 12:40:00,71.5,25.7,30.05,SE,133,1.0,5.0,18,0.00,,,0.00,Wunderground v.1.15,2013-01-20 19:40:00,
2013-01-20 12:45:00,71.5,27.0,30.05,ESE,115,2.0,5.0,19,0.00,,,0.00,Wunderground v.1.15,2013-01-20 19:45:00,
2013-01-20 12:50:00,71.8,27.3,30.04,SE,137,1.0,2.0,19,0.00,,,0.00,Wunderground v.1.15,2013-01-20 19:50:00,
2013-01-20 12:55:00,72.4,26.5,30.04,ENE,68,0.0,3.0,18,0.00,,,0.00,Wunderground v.1.15,2013-01-20 19:55:00,
2013-01-20 13:00:00,72.3,26.4,30.04,ENE,67,3.0,3.0,18,0.00,,,0.00,Wunderground v.1.15,2013-01-20 20:00:00,
2013-01-20 13:05:00,72.2,27.6,30.03,NE,51,2.0,5.0,19,0.00,,,0.00,Wunderground v.1.15,2013-01-20 20:05:00,
2013-01-20 13:10:00,72.4,27.8,30.03,ESE,115,0.0,2.0,19,0.00,,,0.00,Wunderground v.1.15,2013-01-20 20:10:00,
2013-01-20 13:16:00,72.6,26.6,30.03,NNE,27,2.0,2.0,18,0.00,,,0.00,Wunderground v.1.15,2013-01-20 20:16:00,
2013-01-20 13:21:00,72.8,26.8,30.02,NE,39,1.0,2.0,18,0.00,,,0.00,Wunderground v.1.15,2013-01-20 20:21:00,
2013-01-20 13:26:00,73.1,27.0,30.02,North,360,1.0,3.0,18,0.00,,,0.00,Wunderground v.1.15,2013-01-20 20:26:00,
2013-01-20 13:31:00,72.9,28.2,30.02,West,264,1.0,1.0,19,0.00,,,0.00,Wunderground v.1.15,2013-01-20 20:31:00,
2013-01-20 13:36:00,73.5,27.4,30.02,ENE,69,3.0,3.0,18,0.00,,,0.00,Wunderground v.1.15,2013-01-20 20:36:00,
2013-01-20 13:41:00,73.6,27.4,30.01,East,95,0.0,2.0,18,0.00,,,0.00,Wunderground v.1.15,2013-01-20 20:41:00,
2013-01-20 13:46:00,75.2,28.8,30.01,NNE,15,0.0,4.0,18,0.00,,,0.00,Wunderground v.1.15,2013-01-20 20:46:00,
2013-01-20 13:51:00,74.4,28.1,30.01,NNW,337,3.0,3.0,18,0.00,,,0.00,Wunderground v.1.15,2013-01-20 20:51:00,
2013-01-20 13:57:00,74.6,28.3,30.01,North,355,1.0,5.0,18,0.00,,,0.00,Wunderground v.1.15,2013-01-20 20:57:00,
2013-01-20 14:02:00,74.3,28.0,30.01,NNW,342,1.0,3.0,18,0.00,,,0.00,Wunderground v.1.15,2013-01-20 21:02:00,
2013-01-20 14:07:00,75.2,28.8,30.00,NNW,334,1.0,4.0,18,0.00,,,0.00,Wunderground v.1.15,2013-01-20 21:07:00,
2013-01-20 14:13:00,75.6,29.1,30.00,North,351,1.0,3.0,18,0.00,,,0.00,Wunderground v.1.15,2013-01-20 21:13:00,
2013-01-20 14:18:00,76.2,29.6,30.00,NNW,331,2.0,4.0,18,0.00,,,0.00,Wunderground v.1.15,2013-01-20 21:18:00,
2013-01-20 14:23:00,76.0,28.0,30.00,North,355,5.0,7.0,17,0.00,,,0.00,Wunderground v.1.15,2013-01-20 21:23:00,
2013-01-20 14:28:00,75.8,27.8,30.00,NNW,333,3.0,7.0,17,0.00,,,0.00,Wunderground v.1.15,2013-01-20 21:28:00,
2013-01-20 14:34:00,76.2,28.2,30.00,NNW,348,4.0,6.0,17,0.00,,,0.00,Wunderground v.1.15,2013-01-20 21:34:00,
2013-01-20 14:39:00,76.2,28.2,30.00,NW,317,3.0,4.0,17,0.00,,,0.00,Wunderground v.1.15,2013-01-20 21:39:00,
2013-01-20 14:44:00,75.6,27.7,30.00,NNW,329,4.0,7.0,17,0.00,,,0.00,Wunderground v.1.15,2013-01-20 21:44:00,
2013-01-20 14:49:00,75.1,27.3,30.00,North,355,3.0,8.0,17,0.00,,,0.00,Wunderground v.1.15,2013-01-20 21:49:00,
2013-01-20 14:55:00,75.1,27.3,29.99,NNW,331,5.0,8.0,17,0.00,,,0.00,Wunderground v.1.15,2013-01-20 21:55:00,
2013-01-20 15:00:00,74.9,27.1,29.99,North,355,7.0,7.0,17,0.00,,,0.00,Wunderground v.1.15,2013-01-20 22:00:00,
2013-01-20 15:05:00,74.6,26.9,29.99,NNW,333,8.0,8.0,17,0.00,,,0.00,Wunderground v.1.15,2013-01-20 22:05:00,
2013-01-20 15:10:00,74.8,27.0,29.99,North,355,5.0,6.0,17,0.00,,,0.00,Wunderground v.1.15,2013-01-20 22:10:00,
2013-01-20 15:15:00,74.7,27.0,29.99,NW,323,4.0,7.0,17,0.00,,,0.00,Wunderground v.1.15,2013-01-20 22:15:00,
2013-01-20 15:20:00,74.6,26.9,29.99,WNW,292,5.0,5.0,17,0.00,,,0.00,Wunderground v.1.15,2013-01-20 22:20:00,
2013-01-20 15:25:00,74.4,28.1,29.99,NNW,348,4.0,9.0,18,0.00,,,0.00,Wunderground v.1.15,2013-01-20 22:25:00,
2013-01-20 15:31:00,74.0,27.8,29.99,North,360,7.0,10.0,18,0.00,,,0.00,Wunderground v.1.15,2013-01-20 22:31:00,
2013-01-20 15:36:00,73.7,27.5,29.98,NNW,342,7.0,10.0,18,0.00,,,0.00,Wunderground v.1.15,2013-01-20 22:36:00,
2013-01-20 15:41:00,73.6,27.4,29.98,North,355,4.0,8.0,18,0.00,,,0.00,Wunderground v.1.15,2013-01-20 22:41:00,
2013-01-20 15:46:00,73.1,27.0,29.98,NNW,329,6.0,9.0,18,0.00,,,0.00,Wunderground v.1.15,2013-01-20 22:46:00,
2013-01-20 15:52:00,72.9,26.9,29.98,NW,322,8.0,9.0,18,0.00,,,0.00,Wunderground v.1.15,2013-01-20 22:52:00,
2013-01-20 15:57:00,72.5,26.5,29.98,NW,322,3.0,9.0,18,0.00,,,0.00,Wunderground v.1.15,2013-01-20 22:57:00,
2013-01-20 16:02:00,72.0,27.5,29.98,NW,304,6.0,9.0,19,0.00,,,0.00,Wunderground v.1.15,2013-01-20 23:02:00,
2013-01-20 16:07:00,71.2,26.8,29.98,NNW,333,4.0,9.0,19,0.00,,,0.00,Wunderground v.1.15,2013-01-20 23:07:00,
2013-01-20 16:12:00,70.4,26.1,29.98,NNW,336,5.0,9.0,19,0.00,,,0.00,Wunderground v.1.15,2013-01-20 23:12:00,
2013-01-20 16:17:00,69.8,25.6,29.98,NW,321,2.0,9.0,19,0.00,,,0.00,Wunderground v.1.15,2013-01-20 23:17:00,
2013-01-20 16:22:00,69.5,25.4,29.98,NW,310,4.0,6.0,19,0.00,,,0.00,Wunderground v.1.15,2013-01-20 23:22:00,
2013-01-20 16:27:00,69.5,26.6,29.98,NW,309,3.0,6.0,20,0.00,,,0.00,Wunderground v.1.15,2013-01-20 23:27:00,
2013-01-20 16:32:00,69.2,26.4,29.98,NNW,329,2.0,3.0,20,0.00,,,0.00,Wunderground v.1.15,2013-01-20 23:32:00,
2013-01-20 16:38:00,68.8,26.1,29.98,NW,306,3.0,7.0,20,0.00,,,0.00,Wunderground v.1.15,2013-01-20 23:38:00,
2013-01-20 16:43:00,68.5,25.8,29.98,NW,319,2.0,6.0,20,0.00,,,0.00,Wunderground v.1.15,2013-01-20 23:43:00,
2013-01-20 16:48:00,68.2,25.6,29.98,WNW,292,3.0,7.0,20,0.00,,,0.00,Wunderground v.1.15,2013-01-20 23:48:00,
2013-01-20 16:53:00,68.0,25.4,29.98,West,275,3.0,7.0,20,0.00,,,0.00,Wunderground v.1.15,2013-01-20 23:53:00,
2013-01-20 16:58:00,68.0,25.4,29.98,WNW,299,5.0,7.0,20,0.00,,,0.00,Wunderground v.1.15,2013-01-20 23:58:00,
2013-01-20 17:03:00,67.9,25.3,29.98,WNW,294,2.0,7.0,20,0.00,,,0.00,Wunderground v.1.15,2013-01-21 00:03:00,
2013-01-20 17:08:00,67.7,26.3,29.98,WNW,303,6.0,8.0,21,0.00,,,0.00,Wunderground v.1.15,2013-01-21 00:08:00,
2013-01-20 17:13:00,67.4,26.1,29.98,West,265,3.0,9.0,21,0.00,,,0.00,Wunderground v.1.15,2013-01-21 00:13:00,
2013-01-20 17:18:00,67.2,25.9,29.98,West,277,3.0,9.0,21,0.00,,,0.00,Wunderground v.1.15,2013-01-21 00:18:00,
2013-01-20 17:23:00,66.8,25.6,29.98,WNW,288,3.0,6.0,21,0.00,,,0.00,Wunderground v.1.15,2013-01-21 00:23:00,
2013-01-20 17:29:00,66.5,25.3,29.99,West,273,2.0,3.0,21,0.00,,,0.00,Wunderground v.1.15,2013-01-21 00:29:00,
2013-01-20 17:34:00,66.3,25.2,29.99,WSW,256,5.0,7.0,21,0.00,,,0.00,Wunderground v.1.15,2013-01-21 00:34:00,
2013-01-20 17:39:00,66.2,25.1,29.99,WNW,288,4.0,5.0,21,0.00,,,0.00,Wunderground v.1.15,2013-01-21 00:39:00,
2013-01-20 17:44:00,65.9,24.8,29.99,WSW,256,2.0,7.0,21,0.00,,,0.00,Wunderground v.1.15,2013-01-21 00:44:00,
2013-01-20 17:49:00,65.8,25.9,29.99,NW,325,5.0,5.0,22,0.00,,,0.00,Wunderground v.1.15,2013-01-21 00:49:00,
2013-01-20 17:54:00,65.6,25.7,29.99,West,269,4.0,8.0,22,0.00,,,0.00,Wunderground v.1.15,2013-01-21 00:54:00,
2013-01-20 17:59:00,65.3,25.4,29.99,WNW,283,5.0,6.0,22,0.00,,,0.00,Wunderground v.1.15,2013-01-21 00:59:00,
2013-01-20 18:04:00,65.0,25.2,29.99,WNW,289,6.0,7.0,22,0.00,,,0.00,Wunderground v.1.15,2013-01-21 01:04:00,
2013-01-20 18:09:00,64.8,25.0,29.99,West,279,4.0,8.0,22,0.00,,,0.00,Wunderground v.1.15,2013-01-21 01:09:00,
2013-01-20 18:15:00,64.7,26.0,30.00,WNW,288,6.0,9.0,23,0.00,,,0.00,Wunderground v.1.15,2013-01-21 01:15:00,
2013-01-20 18:20:00,64.5,25.8,29.99,WNW,296,7.0,8.0,23,0.00,,,0.00,Wunderground v.1.15,2013-01-21 01:20:00,
2013-01-20 18:25:00,64.4,25.8,29.99,West,263,5.0,9.0,23,0.00,,,0.00,Wunderground v.1.15,2013-01-21 01:25:00,
2013-01-20 18:30:00,64.3,25.7,30.00,WNW,291,3.0,9.0,23,0.00,,,0.00,Wunderground v.1.15,2013-01-21 01:30:00,
2013-01-20 18:36:00,64.2,26.6,30.00,West,271,6.0,10.0,24,0.00,,,0.00,Wunderground v.1.15,2013-01-21 01:36:00,
2013-01-20 18:41:00,64.1,26.5,30.00,West,277,3.0,9.0,24,0.00,,,0.00,Wunderground v.1.15,2013-01-21 01:41:00,
2013-01-20 18:46:00,64.1,26.5,30.00,WNW,298,4.0,9.0,24,0.00,,,0.00,Wunderground v.1.15,2013-01-21 01:46:00,
2013-01-20 18:51:00,64.0,26.4,30.00,WNW,302,9.0,9.0,24,0.00,,,0.00,Wunderground v.1.15,2013-01-21 01:51:00,
2013-01-20 18:57:00,63.9,25.3,30.00,West,275,6.0,9.0,23,0.00,,,0.00,Wunderground v.1.15,2013-01-21 01:57:00,
2013-01-20 19:02:00,63.7,25.2,30.00,WNW,290,5.0,11.0,23,0.00,,,0.00,Wunderground v.1.15,2013-01-21 02:02:00,
2013-01-20 19:07:00,63.4,24.9,30.00,West,271,6.0,11.0,23,0.00,,,0.00,Wunderground v.1.15,2013-01-21 02:07:00,
2013-01-20 19:12:00,63.2,24.7,30.00,WNW,292,5.0,10.0,23,0.00,,,0.00,Wunderground v.1.15,2013-01-21 02:12:00,
2013-01-20 19:18:00,63.1,24.7,30.00,West,273,6.0,10.0,23,0.00,,,0.00,Wunderground v.1.15,2013-01-21 02:18:00,
2013-01-20 19:23:00,63.0,24.6,30.00,West,275,3.0,9.0,23,0.00,,,0.00,Wunderground v.1.15,2013-01-21 02:23:00,
2013-01-20 19:28:00,62.9,24.5,30.00,West,277,3.0,9.0,23,0.00,,,0.00,Wunderground v.1.15,2013-01-21 02:28:00,
2013-01-20 19:33:00,62.7,24.3,30.01,WNW,290,3.0,7.0,23,0.00,,,0.00,Wunderground v.1.15,2013-01-21 02:33:00,
2013-01-20 19:38:00,62.3,24.0,30.01,WNW,284,2.0,7.0,23,0.00,,,0.00,Wunderground v.1.15,2013-01-21 02:38:00,
2013-01-20 19:44:00,62.1,23.8,30.01,NNW,328,6.0,8.0,23,0.00,,,0.00,Wunderground v.1.15,2013-01-21 02:44:00,
2013-01-20 19:49:00,62.1,23.8,30.01,WNW,292,4.0,7.0,23,0.00,,,0.00,Wunderground v.1.15,2013-01-21 02:49:00,
2013-01-20 19:54:00,61.9,23.6,30.01,WNW,303,3.0,7.0,23,0.00,,,0.00,Wunderground v.1.15,2013-01-21 02:54:00,
2013-01-20 19:59:00,61.8,23.6,30.01,WNW,288,6.0,6.0,23,0.00,,,0.00,Wunderground v.1.15,2013-01-21 02:59:00,
2013-01-20 20:04:00,61.7,23.5,30.01,West,278,8.0,8.0,23,0.00,,,0.00,Wunderground v.1.15,2013-01-21 03:04:00,
2013-01-20 20:10:00,61.5,23.3,30.02,West,270,4.0,6.0,23,0.00,,,0.00,Wunderground v.1.15,2013-01-21 03:10:00,
2013-01-20 20:15:00,61.3,23.1,30.02,WNW,282,8.0,8.0,23,0.00,,,0.00,Wunderground v.1.15,2013-01-21 03:15:00,
2013-01-20 20:20:00,61.4,23.2,30.02,WNW,285,4.0,4.0,23,0.00,,,0.00,Wunderground v.1.15,2013-01-21 03:20:00,
2013-01-20 20:25:00,61.1,23.0,30.02,West,281,2.0,8.0,23,0.00,,,0.00,Wunderground v.1.15,2013-01-21 03:25:00,
2013-01-20 20:30:00,61.0,23.9,30.02,West,268,2.0,4.0,24,0.00,,,0.00,Wunderground v.1.15,2013-01-21 03:30:00,
2013-01-20 20:36:00,61.1,24.0,30.02,West,277,2.0,5.0,24,0.00,,,0.00,Wunderground v.1.15,2013-01-21 03:36:00,
2013-01-20 20:41:00,60.9,23.8,30.02,WNW,301,0.0,4.0,24,0.00,,,0.00,Wunderground v.1.15,2013-01-21 03:41:00,
2013-01-20 20:47:00,60.6,23.6,30.02,West,279,0.0,4.0,24,0.00,,,0.00,Wunderground v.1.15,2013-01-21 03:47:00,
2013-01-20 20:52:00,60.4,23.4,30.02,WNW,286,0.0,2.0,24,0.00,,,0.00,Wunderground v.1.15,2013-01-21 03:52:00,
2013-01-20 20:57:00,60.0,24.0,30.02,WNW,286,0.0,2.0,25,0.00,,,0.00,Wunderground v.1.15,2013-01-21 03:57:00,
2013-01-20 21:02:00,60.0,24.0,30.03,WNW,288,0.0,1.0,25,0.00,,,0.00,Wunderground v.1.15,2013-01-21 04:02:00,
2013-01-20 21:07:00,59.7,23.8,30.03,WNW,288,0.0,1.0,25,0.00,,,0.00,Wunderground v.1.15,2013-01-21 04:07:00,
2013-01-20 21:12:00,58.6,23.8,30.03,WNW,292,0.0,2.0,26,0.00,,,0.00,Wunderground v.1.15,2013-01-21 04:12:00,
2013-01-20 21:18:00,58.0,24.2,30.03,WNW,292,0.0,2.0,27,0.00,,,0.00,Wunderground v.1.15,2013-01-21 04:18:00,
2013-01-20 21:23:00,57.9,24.1,30.03,WNW,292,0.0,0.0,27,0.00,,,0.00,Wunderground v.1.15,2013-01-21 04:23:00,
2013-01-20 21:28:00,57.7,23.9,30.03,WNW,292,0.0,1.0,27,0.00,,,0.00,Wunderground v.1.15,2013-01-21 04:28:00,
2013-01-20 21:33:00,58.2,24.3,30.03,WNW,284,0.0,3.0,27,0.00,,,0.00,Wunderground v.1.15,2013-01-21 04:33:00,
2013-01-20 21:38:00,58.3,23.5,30.03,WNW,284,0.0,3.0,26,0.00,,,0.00,Wunderground v.1.15,2013-01-21 04:38:00,
2013-01-20 21:43:00,58.3,24.4,30.04,WNW,284,0.0,1.0,27,0.00,,,0.00,Wunderground v.1.15,2013-01-21 04:43:00,
2013-01-20 21:48:00,56.6,23.8,30.04,WNW,284,0.0,1.0,28,0.00,,,0.00,Wunderground v.1.15,2013-01-21 04:48:00,
2013-01-20 21:53:00,55.6,23.8,30.04,SSW,209,2.0,2.0,29,0.00,,,0.00,Wunderground v.1.15,2013-01-21 04:53:00,
2013-01-20 21:59:00,54.8,23.9,30.04,South,189,0.0,0.0,30,0.00,,,0.00,Wunderground v.1.15,2013-01-21 04:59:00,
2013-01-20 22:00:00,54.7,23.8,30.04,South,189,0.0,0.0,30,0.00,,,0.00,Wunderground v.1.15,2013-01-21 05:00:00,
2013-01-20 22:01:00,54.6,23.7,30.04,South,189,0.0,0.0,30,0.00,,,0.00,Wunderground v.1.15,2013-01-21 05:01:00,
2013-01-20 22:02:00,54.5,24.4,30.04,South,188,1.0,1.0,31,0.00,,,0.00,Wunderground v.1.15,2013-01-21 05:02:00,
2013-01-20 22:07:00,53.9,23.9,30.04,South,173,0.0,2.0,31,0.00,,,0.00,Wunderground v.1.15,2013-01-21 05:07:00,
2013-01-20 22:12:00,53.3,24.2,30.04,South,173,0.0,0.0,32,0.00,,,0.00,Wunderground v.1.15,2013-01-21 05:12:00,
2013-01-20 22:17:00,53.2,24.8,30.04,South,173,0.0,1.0,33,0.00,,,0.00,Wunderground v.1.15,2013-01-21 05:17:00,
2013-01-20 22:22:00,53.9,24.7,30.04,South,173,0.0,1.0,32,0.00,,,0.00,Wunderground v.1.15,2013-01-21 05:22:00,
2013-01-20 22:28:00,54.1,24.9,30.04,South,173,0.0,1.0,32,0.00,,,0.00,Wunderground v.1.15,2013-01-21 05:28:00,
2013-01-20 22:33:00,54.6,24.5,30.04,South,173,0.0,0.0,31,0.00,,,0.00,Wunderground v.1.15,2013-01-21 05:33:00,
2013-01-20 22:39:00,54.5,24.4,30.04,South,173,0.0,0.0,31,0.00,,,0.00,Wunderground v.1.15,2013-01-21 05:39:00,
2013-01-20 22:44:00,54.3,25.0,30.04,South,180,0.0,0.0,32,0.00,,,0.00,Wunderground v.1.15,2013-01-21 05:44:00,
2013-01-20 22:49:00,54.4,25.1,30.05,South,180,0.0,1.0,32,0.00,,,0.00,Wunderground v.1.15,2013-01-21 05:49:00,
2013-01-20 22:54:00,54.7,25.4,30.05,South,180,0.0,1.0,32,0.00,,,0.00,Wunderground v.1.15,2013-01-21 05:54:00,
2013-01-20 22:59:00,54.7,25.4,30.05,South,180,0.0,0.0,32,0.00,,,0.00,Wunderground v.1.15,2013-01-21 05:59:00,
2013-01-20 23:04:00,54.8,25.5,30.05,South,180,0.0,0.0,32,0.00,,,0.00,Wunderground v.1.15,2013-01-21 06:04:00,
2013-01-20 23:09:00,54.5,25.2,30.05,South,180,0.0,0.0,32,0.00,,,0.00,Wunderground v.1.15,2013-01-21 06:09:00,
2013-01-20 23:14:00,53.9,25.4,30.05,South,180,0.0,1.0,33,0.00,,,0.00,Wunderground v.1.15,2013-01-21 06:14:00,
2013-01-20 23:20:00,53.1,24.7,30.04,South,180,0.0,0.0,33,0.00,,,0.00,Wunderground v.1.15,2013-01-21 06:20:00,
2013-01-20 23:26:00,52.8,25.2,30.04,South,180,0.0,0.0,34,0.00,,,0.00,Wunderground v.1.15,2013-01-21 06:26:00,
2013-01-20 23:31:00,53.0,25.3,30.04,South,180,0.0,1.0,34,0.00,,,0.00,Wunderground v.1.15,2013-01-21 06:31:00,
2013-01-20 23:36:00,52.3,24.7,30.04,South,180,0.0,1.0,34,0.00,,,0.00,Wunderground v.1.15,2013-01-21 06:36:00,
2013-01-20 23:41:00,52.1,25.3,30.04,South,180,0.0,0.0,35,0.00,,,0.00,Wunderground v.1.15,2013-01-21 06:41:00,
2013-01-20 23:46:00,52.0,25.2,30.04,South,180,0.0,0.0,35,0.00,,,0.00,Wunderground v.1.15,2013-01-21 06:46:00,
2013-01-20 23:51:00,51.6,25.5,30.04,South,180,0.0,0.0,36,0.00,,,0.00,Wunderground v.1.15,2013-01-21 06:51:00,
2013-01-20 23:57:00,51.3,25.2,30.04,South,180,0.0,0.0,36,0.00,,,0.00,Wunderground v.1.15,2013-01-21 06:57:00,